Location: Bühlhof
(48.7849°N, 8.6361°E)
Time: 07:06:35
(UTC+00:00)

Meteor 1-16 Rocket - Pass Details

Date: 19 January 2026
Orbit: 789 x 905 km, 81.2° (Epoch: 18 February)

Event Time Altitude Azimuth Distance (km) Brightness Sun altitude
Rises 16:33:20 0° 350° (N) 3,300 7.1 -5.3°
Reaches altitude 10° 16:35:44 10° 354° (N) 2,371 6.4 -5.7°
Maximum altitude 16:41:01 60° 75° (ENE) 914 4.1 -6.5°
Drops below altitude 10° 16:46:21 10° 155° (SSE) 2,402 6.6 -7.3°
Sets 16:48:48 0° 159° (SSE) 3,346 7.3 -7.6°
